Terminal Aerodrome Forecast
Issued by NWS

Home | Current Version | Previous Version | Text Only | Print | Product List | Glossary On
Versions: 1 2 3 4 5 6 7 8 9 10 11 12
000
FTUS42 TJSJ 152300 RRA
TAFISX
TAF
TISX 152342Z 1600/1624 04003KT P6SM FEW026 BKN120
     FM161430 10012KT P6SM FEW030
     FM162300 08006KT P6SM FEW025=

USA.gov is the U.S. government's official web portal to all federal, state and local government web resources and services.